RH
38 26 28 25 21 21 22 23 22 21 25 27 33 34 36 34 38 50 56 56 51 43 52 90 72 48 45 47 48 47 46 49 38
46 32 29 30 23 23 22 22 21 23 26 28 30 35 38 38 46 51 59 55 53 49 56 95 81 58 50 51 50 61 55 51 41
62 42 31 30 31 31 27 24 22 24 27 29 31 33 36 40 45 50 62 60 60 56 63 98 94 72 59 62 52 54 55 56 44
44 39 33 30 31 34 34 31 28 24 27 30 31 33 37 50 56 59 58 54 60 64 77 97 99 80 75 75 60 55 58 58 45
49 37 32 32 30 32 34 36 35 33 27 27 30 34 39 50 55 54 53 53 57 60 81 99 100 95 93 68 64 71 71 59 46
59 46 36 33 33 32 33 36 38 39 39 35 36 42 44 48 50 54 55 58 59 61 76 100 100 100 94 90 82 78 64 62 49
70 62 55 40 36 35 33 33 35 38 40 42 45 47 48 49 50 52 54 55 59 69 75 100 100 100 95 94 84 86 73 61 55
81 75 81 65 46 42 35 35 34 35 36 40 43 45 47 49 50 52 53 56 58 68 92 100 100 100 100 93 83 87 82 66 62
98 90 91 90 66 66 58 48 45 39 37 38 40 42 44 46 48 51 56 62 66 79 100 100 100 100 100 89 86 79 87 82 73
100 100 100 100 100 94 89 84 68 52 44 43 48 50 48 48 52 60 64 66 78 93 100 100 100 100 97 97 90 80 83 80 81
100 100 100 100 100 100 100 100 99 96 93 89 84 78 74 67 66 66 70 75 77 97 100 94 91 100 94 100 92 88 80 78 79
80 100 100 100 100 100 100 100 98 95 93 68 95 100 100 92 86 90 86 88 90 92 94 80 75 81 85 88 86 94 84 82 77
100 100 100 100 100 100 100 100 100 89 96 59 68 93 100 100 100 100 100 100 93 92 86 86 89 79 80 75 78 91 89 86 90
100 100 100 100 100 100 100 100 100 98 84 82 79 46 56 100 100 100 100 100 100 91 94 98 100 89 87 84 89 95 94 87 84
100 100 100 100 100 100 100 100 100 100 98 85 82 65 62 82 100 100 100 100 100 100 100 96 100 94 86 86 92 95 97 97 85
100 100 100 100 100 100 100 100 100 100 100 90 88 92 68 70 83 99 100 100 100 100 100 100 100 88 87 81 96 96 100 100 99
100 100 100 100 100 98 100 100 100 100 100 100 99 96 96 80 82 93 100 100 100 100 97 91 92 95 96 95 93 96 100 100 93
82 93 100 100 100 100 99 94 99 100 100 100 100 100 100 74 74 83 96 96 100 97 100 94 87 88 98 100 100 99 100 97 98
90 78 83 100 100 96 100 100 89 92 83 100 100 100 100 85 86 86 96 81 87 100 100 97 94 89 93 100 100 100 100 100 97
100 100 80 82 100 86 84 96 100 100 100 98 93 99 100 97 86 86 85 96 100 100 100 95 96 99 100 100 100 100 100 99 95
Wind_Speed
17 16 13 13 12 11 12 13 14 15 13 12 11 11 11 11 10 11 15 17 17 19 22 25 25 28 32 34 36 35 38 41 42
23 20 18 16 14 14 13 15 17 17 16 16 16 16 15 14 14 14 18 19 19 22 23 26 28 30 34 36 36 35 37 41 43
26 25 23 20 18 17 16 16 19 18 18 18 17 16 16 15 16 18 20 21 23 24 26 27 30 31 35 36 36 37 39 41 43
32 29 28 27 24 20 18 19 19 21 21 19 18 17 16 15 16 19 20 21 23 25 29 28 31 33 36 35 38 39 40 41 43
37 34 32 31 30 27 23 21 21 20 23 24 21 19 19 19 21 22 23 25 28 29 30 28 31 34 32 37 41 39 41 42 42
39 38 36 35 33 33 31 28 26 24 23 24 23 22 23 24 23 23 25 27 29 31 30 29 32 32 36 39 40 41 41 42 42
43 42 39 37 36 35 34 35 33 32 29 27 26 25 26 25 25 27 30 30 31 30 29 29 32 33 36 38 38 42 42 41 42
46 45 42 41 39 38 37 36 36 36 36 33 32 31 29 30 30 30 32 30 30 31 31 28 30 33 35 37 39 42 41 43 42
50 50 48 46 42 40 40 40 39 39 40 39 37 37 35 34 35 31 31 30 31 32 30 29 31 34 36 38 42 42 41 43 43
54 52 52 50 48 46 43 41 41 41 41 40 40 39 38 37 37 33 33 31 32 29 30 31 32 34 39 40 43 43 42 42 44
60 57 55 52 53 51 45 42 44 44 40 41 44 44 41 40 40 38 37 36 34 30 33 34 34 36 39 42 43 44 45 44 45
62 61 61 58 56 55 50 46 42 44 42 41 45 47 46 44 43 43 41 40 33 31 34 35 36 38 41 44 44 45 46 46 46
68 65 64 60 62 60 56 54 51 46 47 45 43 45 48 47 46 45 46 44 36 34 35 37 38 40 42 44 46 46 47 46 47
73 74 71 66 64 62 60 60 58 55 52 50 50 46 46 50 49 47 47 49 45 39 41 42 42 43 45 46 47 48 49 48 48
78 78 77 75 70 69 66 65 62 59 54 55 55 52 48 47 47 46 50 51 50 48 45 46 46 45 47 48 50 51 49 50 52
83 82 81 81 77 73 71 69 66 64 62 61 58 57 49 50 52 52 53 52 50 49 50 51 50 51 51 53 53 53 53 52 52
87 87 86 85 83 83 79 74 71 68 65 65 61 57 52 52 53 52 53 53 52 51 54 54 54 53 55 56 55 56 56 55 53
95 93 92 89 86 85 84 81 74 72 67 66 63 64 58 56 55 58 57 57 58 59 59 59 56 55 57 58 58 59 58 58 53
101 104 99 97 93 89 87 87 82 80 74 70 68 68 65 65 60 62 62 64 63 61 62 61 60 60 59 59 61 62 61 60 57
94 97 105 101 99 97 95 92 86 84 81 79 76 72 71 75 77 73 68 67 67 67 67 68 66 64 62 62 63 63 62 61 61
Wind_Direction
213 221 223 223 214 212 214 217 200 192 188 188 203 222 240 252 264 289 302 302 306 318 325 329 328 336 338 337 338 338 341 346 349
219 220 224 223 218 216 220 221 206 202 201 204 213 225 240 254 272 287 295 302 307 311 317 329 328 329 337 337 337 336 339 344 348
227 226 224 223 223 219 224 226 224 217 215 217 224 236 246 261 275 281 288 300 305 312 315 325 327 326 332 333 338 334 336 342 346
234 232 230 223 224 222 227 228 230 231 227 230 240 249 251 265 272 278 288 298 307 313 312 321 323 324 327 331 335 336 334 339 343
236 230 228 228 224 226 227 229 232 234 238 241 244 254 258 265 270 279 286 294 301 308 313 318 318 320 322 327 331 331 331 333 341
235 233 231 229 227 227 228 230 234 233 236 243 246 250 254 263 271 278 284 292 296 301 310 318 313 315 320 321 325 327 331 331 338
230 234 232 231 234 233 231 230 233 236 236 241 247 247 255 262 269 275 280 286 291 298 304 313 310 309 317 319 323 325 327 330 333
230 233 234 235 232 233 233 233 233 239 241 241 245 251 256 261 267 274 279 285 289 293 302 308 306 305 311 315 320 324 323 328 329
232 230 233 236 235 234 233 233 236 239 243 245 245 249 254 259 265 270 274 282 287 293 305 304 302 304 307 312 317 322 320 323 326
239 232 233 234 237 235 234 235 237 241 245 249 252 251 254 258 262 266 272 281 284 293 298 296 299 301 303 309 315 319 317 320 322
242 238 236 239 240 240 237 241 243 243 247 253 253 254 254 257 261 267 270 274 281 288 291 293 297 298 302 306 312 315 317 317 320
236 240 242 242 244 242 241 243 248 252 253 259 260 257 258 259 262 266 269 273 278 282 285 292 300 301 303 305 309 312 315 316 317
240 240 241 240 244 244 242 244 249 254 252 257 260 261 263 262 262 265 270 272 274 276 282 288 294 299 303 308 310 311 311 313 313
240 241 241 241 242 244 242 248 251 253 253 257 259 262 265 266 266 270 274 274 274 277 281 285 289 295 301 305 308 311 311 311 310
237 241 241 240 242 243 245 248 250 252 254 258 259 259 262 264 269 270 272 275 277 280 279 282 287 292 300 305 306 308 309 308 310
236 237 240 240 238 242 245 247 250 253 255 257 258 255 258 262 265 268 271 275 277 278 278 279 285 290 299 303 303 304 306 306 308
235 237 238 239 241 241 242 246 248 249 252 254 256 255 257 262 264 267 270 273 274 275 277 277 282 289 296 298 301 303 303 303 303
234 234 237 237 240 243 242 243 243 244 246 251 252 252 253 258 263 266 269 271 273 275 276 277 280 287 291 294 298 300 299 300 301
236 238 235 236 239 240 242 245 246 248 247 246 248 249 252 258 261 268 268 271 272 272 275 276 278 283 287 290 294 297 297 298 300
231 235 239 237 237 239 242 244 244 245 246 250 248 247 251 258 263 265 267 269 271 272 273 276 277 282 285 289 291 294 295 295 299